User: anonymous   Login
Location: Bothwell
(42.3833°S, 147.0000°E)
Time: 02:20:19
(UTC+10:00)
Language:

KKS-1 - Orbit

View from above orbital plane
View from above orbital plane
View from above satellite
View from above satellite

Ground track
Ground track

The orbit data is extracted from the following two-line orbital elements,

1 33499U 09002H   24207.51225875  .00002875  00000-0  39630-3 0  9995
2 33499  98.1346 109.5833 0008863  17.6440 342.5077 14.78993022834218
Epoch (UTC): 25 July 2024 12:17:39
Eccentricity: 0.0008863
inclination: 98.1346°
perigee height: 626 km
apogee height: 639 km
right ascension of ascending node: 109.5833°
argument of perigee: 17.6440°
revolutions per day: 14.78993022
mean anomaly at epoch: 342.5077°
orbit number at epoch: 83421

The dashed part of the orbit path shows where the satellite is in the earth's shadow,  

DLR